[[{"header":{"parameterUnit":"m.s-1","parameterCategory":1,"la1":30.2991,"la2":30.254,"lo1":-89.0895,"lo2":-89.0444,"dy":0.0017,"dx":0.0017,"nx":28,"ny":28,"refTime":"2024-07-06T03:00:00:Z","depth":0,"parameterNumber":2,"parameterNumberName":"U-component_of_WINDS"},"data":[0,0,0,0,0,0,0,0,0,0,0,0,0,0,0,0,0,0,0,0,0,0,0,0,0,0,0,0,0,0,0,0,0,0,0,0,0,0,0,0,0,0,0,0,0,0,0,0,0,0,0,0,0,0,0,0,0,0,-1.5475,-1.5474,0,-1.5341,-1.5339,-1.5338,-1.5256,-1.5256,-1.5255,-1.5255,-1.5111,-1.5108,-1.5105,0,0,0,0,0,0,0,0,0,0,0,0,0,-1.5656,-1.5653,-1.5476,-1.5474,-1.5472,-1.5341,-1.5339,-1.5337,-1.5256,-1.5256,-1.5255,-1.5255,-1.5113,-1.5109,-1.5104,0,0,0,0,0,0,0,0,0,0,0,0,0,-1.5555,-1.5652,-1.5476,-1.5416,-1.5409,-1.5342,-1.5339,-1.5337,-1.5256,-1.5256,-1.5255,-1.5254,-1.5114,-1.5109,-1.5104,-1.5083,0,0,-1.5088,-1.5086,0,0,0,0,0,0,0,0,-1.5561,-1.5549,-1.5426,-1.542,-1.5412,-1.5315,-1.535,-1.5252,-1.5256,-1.5314,-1.5255,-1.5254,-1.5179,-1.5169,-1.5144,-1.5077,-1.5071,-1.5088,-1.5084,-1.5082,-1.5081,0,0,0,0,0,0,0,-1.5568,-1.5554,-1.5422,-1.5425,-1.5416,-1.5394,-1.5379,-1.5331,-1.5251,-1.5309,-1.5303,-1.5288,-1.5175,-1.515,-1.5141,-1.5068,-1.5088,-1.5083,-1.508,-1.5078,-1.4976,-1.4976,0,0,0,0,0,0,-1.5586,-1.556,-1.5426,-1.5418,-1.5487,-1.5391,-1.5374,-1.5347,-1.5252,-1.5237,-1.5289,-1.5285,-1.5159,-1.5147,-1.5135,-1.5104,-1.5082,-1.5077,-1.5074,-1.4975,-1.4976,-1.4976,0,0,0,0,0,0,-1.559,-1.5574,-1.5432,-1.5487,-1.5468,-1.5389,-1.5358,-1.5344,-1.5319,-1.5237,-1.5221,-1.5278,-1.5158,-1.5142,-1.5097,-1.5098,-1.5075,-1.507,-1.4975,-1.4975,-1.4976,-1.5042,0,0,0,0,0,0,-1.5595,-1.5576,-1.5569,-1.5488,-1.5465,-1.5398,-1.5358,-1.5342,-1.5311,-1.5304,-1.5222,-1.5208,-1.5156,-1.5105,-1.5092,-1.509,-1.5066,-1.4974,-1.4975,-1.4976,-1.5039,-1.5045,-1.5049,0,0,0,0,0,-1.5602,-1.5592,-1.5569,-1.5553,-1.5455,-1.5398,-1.5384,-1.5327,-1.5311,-1.5302,-1.5249,-1.5211,-1.5101,-1.5101,-1.5086,-1.5082,-1.4974,-1.4975,-1.4976,-1.5037,-1.5044,-1.5049,0,0,0,0,0,0,-1.5673,-1.558,-1.5554,-1.5518,-1.5467,-1.5384,-1.5371,-1.5336,-1.5286,-1.5282,-1.5211,-1.5193,-1.5154,-1.5114,-1.5116,-1.5057,-1.5033,-1.5031,-1.5085,-1.509,-1.5095,-1.5105,-1.5062,0,0,0,0,0,-1.5685,-1.5649,-1.5569,-1.5544,-1.552,-1.5451,-1.5424,-1.5384,-1.5327,-1.5304,-1.5248,-1.5193,-1.5146,-1.5116,-1.5068,-1.5034,-1.5013,-1.5024,-1.5029,-1.5033,-1.5031,-1.5009,-1.5012,-1.4979,-1.4979,-1.4979,0,0,-1.5708,-1.5653,-1.5634,-1.5557,-1.5513,-1.5475,-1.5433,-1.5394,-1.5365,-1.5298,-1.5252,-1.5209,-1.5142,-1.5102,-1.5082,-1.5067,-1.5036,-1.5034,-1.5039,-1.5034,-1.501,-1.5013,-1.5016,-1.498,-1.498,-1.498,0,0,-1.573,-1.5686,-1.5661,-1.5618,-1.5552,-1.5506,-1.55,-1.5423,-1.5392,-1.5345,-1.5294,-1.5257,-1.5178,-1.5132,-1.5099,-1.5105,-1.5067,-1.5092,-1.5117,-1.5096,-1.5098,-1.51,-1.51,-1.5102,-1.5091,-1.5091,-1.5091,0,-1.5767,-1.5709,-1.5651,-1.5616,-1.5583,-1.5524,-1.5496,-1.5456,-1.5377,-1.5355,-1.5341,-1.524,-1.5191,-1.5138,-1.514,-1.5116,-1.5105,-1.51,-1.5103,-1.5104,-1.5105,-1.5105,-1.5105,-1.5094,-1.5094,-1.5093,-1.5093,0,-1.5757,-1.5718,-1.5704,-1.5632,-1.5598,-1.5567,-1.5502,-1.5474,-1.5438,-1.5392,-1.5344,-1.5284,-1.5223,-1.5208,-1.5171,-1.515,-1.5143,-1.5117,-1.5091,-1.5112,-1.5111,-1.511,-1.5099,-1.5098,-1.5097,-1.5096,0,0,-1.5818,-1.5715,-1.5711,-1.5677,-1.5601,-1.5568,-1.5534,-1.5476,-1.5452,-1.54,-1.5368,-1.5303,-1.5278,-1.524,-1.5198,-1.518,-1.5187,-1.5155,-1.5153,-1.5162,-1.5157,-1.5176,-1.5177,-1.5162,-1.5162,-1.5162,-1.5162,0,-1.5828,-1.5765,-1.5712,-1.5668,-1.563,-1.5573,-1.5543,-1.5492,-1.5449,-1.5409,-1.5361,-1.5315,-1.5287,-1.5264,-1.5243,-1.519,-1.5184,-1.519,-1.5129,-1.5127,-1.5145,-1.5176,-1.5196,-1.5199,-1.5162,-1.5161,-1.5161,0,-1.583,-1.5782,-1.5735,-1.5663,-1.5645,-1.5619,-1.5561,-1.5524,-1.5464,-1.5434,-1.5393,-1.5349,-1.5308,-1.5288,-1.5229,-1.5234,-1.5206,-1.5177,-1.5175,-1.5166,-1.5144,-1.5165,-1.5199,-1.5199,-1.516,-1.516,-1.516,0,-1.5878,-1.5801,-1.5763,-1.5736,-1.5651,-1.5634,-1.5597,-1.5537,-1.5505,-1.5454,-1.5432,-1.5377,-1.5346,-1.5303,-1.5244,-1.5236,-1.5191,-1.5167,-1.5163,-1.5164,-1.5154,-1.5155,-1.5182,-1.514,-1.514,-1.514,-1.514,0,-1.5893,-1.5865,-1.5783,-1.5759,-1.5727,-1.5666,-1.5634,-1.5592,-1.554,-1.5505,-1.5453,-1.5421,-1.5347,-1.5306,-1.526,-1.5218,-1.5204,-1.5177,-1.5165,-1.5181,-1.5184,-1.516,-1.5157,-1.514,-1.514,-1.514,-1.514,0,-1.5939,-1.5883,-1.5838,-1.5761,-1.5742,-1.5721,-1.5654,-1.5628,-1.5583,-1.554,-1.5526,-1.5455,-1.5403,-1.5342,-1.527,-1.524,-1.52,-1.5183,-1.5221,-1.5214,-1.5213,-1.5213,-1.5223,-1.5221,-1.5183,-1.5184,-1.5184,0,-1.5952,-1.593,-1.5852,-1.5826,-1.5791,-1.575,-1.5718,-1.5657,-1.5626,-1.5556,-1.5538,-1.5483,-1.5436,-1.5357,-1.5297,-1.5242,-1.5222,-1.5229,-1.5213,-1.5229,-1.5219,-1.5221,-1.5217,-1.5233,-1.5234,-1.5234,-1.5235,0,-1.5979,-1.5953,-1.591,-1.5857,-1.5821,-1.5776,-1.5728,-1.5709,-1.5638,-1.5605,-1.5553,-1.5517,-1.5445,-1.539,-1.5328,-1.5287,-1.5248,-1.5241,-1.5237,-1.5251,-1.5273,-1.526,-1.5231,-1.524,-1.524,-1.5239,-1.5239,-1.5239,-1.6007,-1.5984,-1.5927,-1.588,-1.5838,-1.5795,-1.5767,-1.5719,-1.5676,-1.5614,-1.558,-1.5529,-1.5468,-1.538,-1.5342,-1.5299,-1.5285,-1.528,-1.5278,-1.5277,-1.5281,-1.5283,-1.5288,-1.5288,-1.5287,-1.5287,-1.5287,0,-1.603,-1.599,-1.5948,-1.5885,-1.5848,-1.5817,-1.5763,-1.5733,-1.569,-1.5638,-1.5593,-1.5533,-1.5481,-1.5418,-1.536,-1.5338,-1.5319,-1.5325,-1.5324,-1.5315,-1.5298,-1.5306,-1.5341,-1.5341,-1.5341,-1.5341,-1.5341,-1.5341,-1.6037,-1.5998,-1.5965,-1.5903,-1.5863,-1.5814,-1.5785,-1.5744,-1.5703,-1.5639,-1.5596,-1.5556,-1.5499,-1.5437,-1.5386,-1.5369,-1.5349,-1.5361,-1.5338,-1.5322,-1.5317,-1.5312,-1.532,-1.5357,-1.5357,-1.5359,-1.5359,-1.5359]},{"header":{"parameterUnit":"m.s-1","parameterCategory":1,"la1":30.2991,"la2":30.254,"lo1":-89.0895,"lo2":-89.0444,"dy":0.0017,"dx":0.0017,"nx":28,"ny":28,"refTime":"2024-07-06T03:00:00:Z","depth":0,"parameterNumber":3,"parameterNumberName":"V-component_of_WINDS"},"data":[0,0,0,0,0,0,0,0,0,0,0,0,0,0,0,0,0,0,0,0,0,0,0,0,0,0,0,0,0,0,0,0,0,0,0,0,0,0,0,0,0,0,0,0,0,0,0,0,0,0,0,0,0,0,0,0,0,0,-0.7382,-0.7383,0,-0.7425,-0.7425,-0.7426,-0.7453,-0.7453,-0.7453,-0.7453,-0.7495,-0.7496,-0.7497,0,0,0,0,0,0,0,0,0,0,0,0,0,-0.7322,-0.7323,-0.7382,-0.7383,-0.7383,-0.7425,-0.7425,-0.7426,-0.7453,-0.7453,-0.7453,-0.7453,-0.7495,-0.7496,-0.7497,0,0,0,0,0,0,0,0,0,0,0,0,0,-0.7354,-0.7323,-0.7382,-0.7402,-0.7404,-0.7425,-0.7425,-0.7426,-0.7452,-0.7453,-0.7453,-0.7453,-0.7494,-0.7496,-0.7497,-0.7501,0,0,-0.7502,-0.7502,0,0,0,0,0,0,0,0,-0.7352,-0.7356,-0.7398,-0.74,-0.7403,-0.7434,-0.7419,-0.7451,-0.7452,-0.7434,-0.7453,-0.7453,-0.7474,-0.7477,-0.7485,-0.7503,-0.7505,-0.7502,-0.7503,-0.7503,-0.7504,0,0,0,0,0,0,0,-0.735,-0.7355,-0.7399,-0.7399,-0.7402,-0.7407,-0.7412,-0.7425,-0.7452,-0.7436,-0.7438,-0.7442,-0.7476,-0.7483,-0.7486,-0.7506,-0.7502,-0.7503,-0.7504,-0.7504,-0.7527,-0.7527,0,0,0,0,0,0,-0.7345,-0.7353,-0.7398,-0.74,-0.7378,-0.7408,-0.7414,-0.7423,-0.7452,-0.7457,-0.7442,-0.7443,-0.7481,-0.7484,-0.7487,-0.7493,-0.7503,-0.7505,-0.7505,-0.7527,-0.7527,-0.7527,0,0,0,0,0,0,-0.7344,-0.7349,-0.7396,-0.7377,-0.7384,-0.7409,-0.742,-0.7424,-0.7432,-0.7457,-0.7462,-0.7445,-0.7481,-0.7485,-0.7497,-0.7495,-0.7505,-0.7506,-0.7528,-0.7527,-0.7527,-0.7504,0,0,0,0,0,0,-0.7342,-0.7348,-0.7351,-0.7377,-0.7384,-0.7406,-0.742,-0.7425,-0.7435,-0.7437,-0.7461,-0.7466,-0.7482,-0.7495,-0.7499,-0.7497,-0.7508,-0.7528,-0.7527,-0.7527,-0.7505,-0.7503,-0.7501,0,0,0,0,0,-0.734,-0.7343,-0.7351,-0.7356,-0.7389,-0.7406,-0.741,-0.7429,-0.7434,-0.7437,-0.7452,-0.7465,-0.7494,-0.7496,-0.75,-0.7499,-0.7528,-0.7528,-0.7527,-0.7506,-0.7504,-0.7501,0,0,0,0,0,0,-0.7316,-0.7347,-0.7356,-0.7368,-0.7384,-0.741,-0.7414,-0.7426,-0.744,-0.7441,-0.7463,-0.7469,-0.7478,-0.749,-0.7491,-0.7503,-0.7513,-0.7513,-0.7495,-0.7493,-0.7491,-0.7488,-0.7509,0,0,0,0,0,-0.7313,-0.7325,-0.7351,-0.7359,-0.7366,-0.7389,-0.7397,-0.741,-0.7427,-0.7434,-0.745,-0.7466,-0.7478,-0.7486,-0.75,-0.7507,-0.7512,-0.7508,-0.7506,-0.7504,-0.7504,-0.7507,-0.7505,-0.7525,-0.7525,-0.7525,0,0,-0.7305,-0.7323,-0.733,-0.7355,-0.7369,-0.7379,-0.7394,-0.7406,-0.7414,-0.7435,-0.7447,-0.746,-0.7478,-0.7487,-0.7492,-0.7498,-0.7499,-0.7503,-0.7502,-0.7503,-0.7506,-0.7504,-0.7502,-0.7524,-0.7524,-0.7524,0,0,-0.7297,-0.7313,-0.7321,-0.7334,-0.7354,-0.7368,-0.737,-0.7394,-0.7403,-0.7415,-0.7431,-0.744,-0.7462,-0.7474,-0.7483,-0.7476,-0.7488,-0.748,-0.7469,-0.7471,-0.747,-0.7469,-0.7465,-0.7463,-0.748,-0.748,-0.748,0,-0.7286,-0.7303,-0.7323,-0.7333,-0.7342,-0.7362,-0.7369,-0.7381,-0.7404,-0.741,-0.7415,-0.7441,-0.7456,-0.7467,-0.7465,-0.7472,-0.7473,-0.7477,-0.7469,-0.7468,-0.7467,-0.7463,-0.7462,-0.7479,-0.7479,-0.7479,-0.7479,0,-0.7287,-0.7299,-0.7302,-0.7324,-0.7334,-0.7342,-0.7362,-0.7369,-0.738,-0.7394,-0.7404,-0.7422,-0.7438,-0.7441,-0.7453,-0.7453,-0.7456,-0.7465,-0.7474,-0.7463,-0.746,-0.7459,-0.7477,-0.7477,-0.7478,-0.7478,0,0,-0.7267,-0.7298,-0.7299,-0.7308,-0.7331,-0.734,-0.7348,-0.7363,-0.7368,-0.7383,-0.739,-0.7406,-0.7414,-0.7424,-0.7437,-0.7439,-0.743,-0.7447,-0.7448,-0.7442,-0.743,-0.7422,-0.742,-0.7438,-0.7438,-0.7438,-0.7427,0,-0.7262,-0.7279,-0.7295,-0.7305,-0.7315,-0.7332,-0.7339,-0.7353,-0.7365,-0.7374,-0.7387,-0.7398,-0.7408,-0.7414,-0.7417,-0.7431,-0.7428,-0.7432,-0.7443,-0.7443,-0.7437,-0.7419,-0.7412,-0.7401,-0.7427,-0.7426,-0.7426,0,-0.7259,-0.7272,-0.7283,-0.7302,-0.7307,-0.7313,-0.7327,-0.7336,-0.7351,-0.7359,-0.7369,-0.7382,-0.739,-0.7398,-0.7409,-0.7411,-0.7416,-0.7423,-0.7423,-0.7424,-0.7433,-0.7419,-0.7399,-0.7397,-0.7425,-0.7425,-0.7425,0,-0.7242,-0.7262,-0.7271,-0.7278,-0.7301,-0.7304,-0.7314,-0.733,-0.7337,-0.7349,-0.7353,-0.7366,-0.7373,-0.7382,-0.7397,-0.7402,-0.7405,-0.7415,-0.7411,-0.741,-0.741,-0.741,-0.739,-0.7415,-0.7415,-0.7415,-0.7415,0,-0.7234,-0.724,-0.7263,-0.7268,-0.7274,-0.7292,-0.7297,-0.7308,-0.7321,-0.7328,-0.7343,-0.7349,-0.7369,-0.7377,-0.7389,-0.7394,-0.7397,-0.7403,-0.7406,-0.7401,-0.74,-0.7405,-0.7405,-0.7415,-0.7415,-0.7415,-0.7415,0,-0.7217,-0.7233,-0.7243,-0.7263,-0.7268,-0.7271,-0.7288,-0.7293,-0.7305,-0.7313,-0.7315,-0.7334,-0.7343,-0.7359,-0.7374,-0.7381,-0.7384,-0.739,-0.7379,-0.738,-0.7374,-0.7374,-0.7356,-0.7353,-0.7381,-0.738,-0.738,0,-0.721,-0.7215,-0.7235,-0.724,-0.7249,-0.7258,-0.7265,-0.7282,-0.7288,-0.7304,-0.7306,-0.7317,-0.7326,-0.734,-0.7354,-0.7364,-0.737,-0.7363,-0.7372,-0.7366,-0.7368,-0.7367,-0.7367,-0.736,-0.736,-0.736,-0.736,0,-0.7197,-0.7204,-0.7214,-0.7226,-0.7233,-0.7243,-0.7254,-0.7258,-0.7277,-0.7283,-0.7292,-0.7299,-0.7313,-0.7322,-0.7334,-0.7343,-0.7354,-0.7356,-0.7356,-0.735,-0.7343,-0.7345,-0.7372,-0.7357,-0.7357,-0.7357,-0.7357,-0.7358,-0.7185,-0.7188,-0.7202,-0.7212,-0.7221,-0.723,-0.7235,-0.7247,-0.7255,-0.7267,-0.7276,-0.7284,-0.7297,-0.7313,-0.7321,-0.7327,-0.7332,-0.7332,-0.7331,-0.7331,-0.7328,-0.7343,-0.7329,-0.733,-0.733,-0.733,-0.733,0,-0.7171,-0.718,-0.7189,-0.7203,-0.7209,-0.7218,-0.723,-0.7235,-0.7242,-0.7253,-0.7261,-0.727,-0.7279,-0.7292,-0.7302,-0.7303,-0.7308,-0.7305,-0.7305,-0.7306,-0.7324,-0.7323,-0.7301,-0.7301,-0.7301,-0.7301,-0.7301,-0.7301,-0.7165,-0.7171,-0.7179,-0.7189,-0.7198,-0.7206,-0.7211,-0.7219,-0.7227,-0.7237,-0.7244,-0.7253,-0.7264,-0.7274,-0.7281,-0.7285,-0.7287,-0.7282,-0.7287,-0.7303,-0.7305,-0.7308,-0.7307,-0.7282,-0.7282,-0.7269,-0.7269,-0.7269]}]]